Вернуться в каталог

DELTA 1 DEB

АктивенLEO
NORAD 10706·DEBRIS·🇺🇸 United States

Запущен Jul 29, 1976 с Vandenberg Space Force Base

Loading…

Ближайшие Пролёты (ближайшие 24 часа)

TLE

СвежийSource: Space-Track

Эпоха: Sep 14, 2026, 03:00 UTC

1 10706U 76077AB  26257.12510123  .00000296  00000-0  10384-2 0  9993
2 10706 101.5283 122.6837 0394233 319.2195 197.0536 12.83381578330888

Отслеживайте DELTA 1 DEB в реальном времени с AllMySat

Download on the App Store